FW6835 Weather Reports


time (UTC)temp
F
wind
direction
speed
knots
gust
knots
rain 1hr
in
rain 24hr
in
rain mn
in
humidity
%
barometer
mb
20260905233003 54 216 1.7 6.1 0.00 0.01 0.00 88 1024.1
20260905232505 54 183 0.9 6.1 0.00 0.01 0.00 88 1024.3
20260905232003 54 202 0.9 3.5 0.00 0.01 0.00 88 1024.0
20260905231502 54 216 1.7 4.3 0.00 0.01 0.00 88 1024.1
20260905231004 55 178 0.9 4.3 0.00 0.01 0.00 88 1024.1
20260905230501 55 184 0.9 2.6 0.00 0.01 0.00 88 1023.9
20260905230100 55 206 0.0 3.5 0.00 0.01 0.00 88 1023.9
20260905225604 55 178 1.7 6.1 0.00 0.03 0.00 88 1024.0
20260905225102 55 215 0.9 6.1 0.00 0.03 0.00 88 1023.9
20260905224602 55 211 0.0 5.2 0.00 0.03 0.00 88 1023.8
20260905224056 55 224 0.9 5.2 0.00 0.03 0.00 88 1023.8
20260905223557 55 238 0.0 2.6 0.00 0.03 0.00 88 1023.7
20260905223056 55 183 0.0 7.8 0.00 0.03 0.00 88 1023.7
20260905222555 55 227 1.7 7.8 0.00 0.03 0.00 87 1023.6
20260905222055 55 254 0.9 3.5 0.00 0.03 0.00 87 1023.5
20260905221555 55 244 0.0 4.3 0.00 0.03 0.00 87 1023.6
20260905221055 55 248 0.9 4.3 0.00 0.03 0.00 86 1023.7
20260905220554 55 253 0.9 3.5 0.00 0.03 0.00 86 1023.5
20260905220053 55 210 0.0 3.5 0.00 0.03 0.00 86 1023.7
20260905215553 55 215 0.0 3.5 0.00 0.17 0.03 86 1023.6
20260905215052 55 227 0.0 6.1 0.00 0.17 0.03 85 1023.7
20260905214604 56 259 1.7 6.1 0.00 0.17 0.03 85 1023.6
20260905214051 56 242 0.9 6.1 0.00 0.17 0.03 85 1023.5
20260905213551 56 279 0.9 6.1 0.00 0.17 0.03 84 1023.3
20260905213050 56 201 0.9 4.3 0.00 0.17 0.03 84 1023.3
20260905212550 56 195 0.0 3.5 0.00 0.17 0.03 84 1023.3
20260905212050 56 209 0.0 3.5 0.00 0.17 0.03 85 1023.2
20260905211549 56 135 0.9 3.5 0.00 0.17 0.03 84 1023.2
20260905211049 56 224 1.7 4.3 0.00 0.17 0.03 84 1023.2
20260905210549 56 204 0.9 4.3 0.00 0.17 0.03 84 1023.3
20260905210049 56 163 0.0 4.3 0.00 0.17 0.03 83 1023.3
20260905205548 56 181 0.9 4.3 0.00 0.17 0.03 83 1023.3
20260905205051 56 244 1.7 5.2 0.00 0.17 0.03 83 1023.3
20260905204548 56 208 0.9 5.2 0.00 0.17 0.03 83 1023.1
20260905204047 56 247 1.7 6.1 0.00 0.17 0.03 83 1022.9
20260905203550 56 127 0.9 6.1 0.00 0.17 0.03 83 1023.1
20260905203047 56 304 2.6 7.0 0.00 0.17 0.03 83 1022.8
20260905202546 56 215 0.9 7.0 0.00 0.17 0.03 83 1022.9
20260905202049 56 199 0.0 7.8 0.00 0.17 0.03 83 1022.7
20260905201546 56 254 1.7 7.8 0.00 0.17 0.03 83 1022.9
20260905201046 57 223 0.0 6.1 0.00 0.17 0.03 83 1022.8
20260905200545 57 240 0.9 6.1 0.00 0.17 0.03 82 1022.6
20260905200047 57 197 0.9 3.5 0.00 0.17 0.03 82 1022.7
20260905195543 57 185 0.0 3.5 0.00 0.17 0.03 82 1022.6
20260905195043 57 229 0.9 3.5 0.00 0.17 0.03 82 1022.6
20260905194542 57 208 0.0 3.5 0.00 0.17 0.03 82 1022.4
20260905194042 57 212 0.9 4.3 0.00 0.17 0.03 82 1022.2
20260905193542 57 221 0.0 4.3 0.00 0.17 0.03 82 1022.2
20260905193042 57 227 0.9 6.1 0.00 0.17 0.03 82 1022.0
20260905192541 57 235 0.9 6.1 0.00 0.17 0.03 81 1022.1
20260905192042 57 188 1.7 4.3 0.00 0.17 0.03 81 1022.1
20260905191540 57 234 0.0 6.1 0.00 0.17 0.03 81 1022.1
20260905191041 57 213 0.9 6.1 0.00 0.17 0.03 80 1022.2
20260905190539 57 250 0.0 3.5 0.00 0.17 0.03 80 1022.2
20260905190039 58 239 0.0 7.0 0.00 0.17 0.03 80 1022.1
20260905185540 58 223 1.7 7.0 0.00 0.19 0.03 79 1022.1
20260905185038 58 258 0.9 7.0 0.00 0.19 0.03 78 1022.1
20260905184544 58 244 3.5 10.4 0.00 0.19 0.03 78 1021.9
20260905184038 59 159 0.9 5.2 0.00 0.19 0.03 76 1021.9
20260905183540 59 226 0.0 1.7 0.00 0.19 0.03 76 1021.7
20260905183038 59 227 0.0 2.6 0.00 0.19 0.03 75 1021.6
20260905182541 59 227 0.0 3.5 0.00 0.19 0.03 76 1021.5
20260905182036 59 303 0.9 3.5 0.00 0.19 0.03 75 1021.5
20260905181536 59 227 0.0 6.1 0.00 0.19 0.03 75 1021.5
20260905181035 60 229 1.7 6.1 0.00 0.19 0.03 73 1021.4
20260905180535 60 219 0.9 4.3 0.00 0.19 0.03 73 1021.1
20260905180034 60 136 0.9 5.2 0.00 0.19 0.03 70 1021.2
20260905175533 60 254 0.0 5.2 0.00 0.24 0.03 69 1021.0
20260905175033 60 252 1.7 6.1 0.00 0.24 0.03 68 1021.0
20260905174540 61 201 2.6 6.1 0.00 0.24 0.03 68 1020.9
20260905174031 61 243 1.7 5.2 0.00 0.24 0.03 68 1020.8
20260905173530 61 227 1.7 6.1 0.00 0.24 0.03 67 1020.8
20260905173030 61 254 1.7 7.0 0.00 0.24 0.03 67 1020.6
20260905172530 61 211 1.7 7.0 0.00 0.24 0.03 67 1020.6
20260905172032 61 227 1.7 9.6 0.00 0.24 0.03 67 1020.6
20260905171529 61 262 3.5 9.6 0.00 0.24 0.03 66 1020.5
20260905171028 61 192 1.7 8.7 0.00 0.24 0.03 66 1020.5
20260905170528 61 265 1.7 7.0 0.00 0.24 0.03 67 1020.5
20260905170030 62 223 2.6 12.2 0.00 0.24 0.03 66 1020.4
20260905165527 62 233 4.3 12.2 0.00 0.24 0.03 66 1020.4
20260905165028 62 180 2.6 8.7 0.00 0.24 0.03 65 1020.3
20260905164527 63 247 1.7 17.4 0.00 0.24 0.03 66 1020.4
20260905164027 63 188 2.6 17.4 0.00 0.24 0.03 64 1020.1
20260905163525 63 239 2.6 8.7 0.00 0.24 0.03 64 1020.1
20260905163025 63 206 3.5 9.6 0.00 0.24 0.03 65 1020.0
20260905162525 63 244 1.7 7.0 0.00 0.24 0.03 65 1020.1
20260905162024 63 205 1.7 10.4 0.00 0.24 0.03 65 1019.8
20260905161525 63 219 1.7 10.4 0.00 0.24 0.03 64 1019.9
20260905161024 63 217 2.6 9.6 0.00 0.24 0.03 64 1020.0
20260905160524 63 300 5.2 9.6 0.00 0.24 0.03 64 1019.7
20260905160040 63 279 3.5 12.2 0.00 0.24 0.03 66 1019.8
20260905155524 62 267 3.5 10.4 0.00 0.24 0.03 68 1019.9
20260905155023 62 271 2.6 7.8 0.00 0.24 0.03 67 1019.7
20260905154523 62 261 1.7 7.8 0.00 0.24 0.03 67 1019.7
20260905154022 63 243 1.7 10.4 0.00 0.24 0.03 66 1019.6
20260905153524 63 222 3.5 11.3 0.00 0.24 0.03 65 1019.7
20260905153024 63 288 5.2 10.4 0.00 0.24 0.03 64 1019.6
20260905152522 63 238 3.5 10.4 0.00 0.24 0.03 66 1019.6
20260905152025 63 268 3.5 13.0 0.00 0.24 0.03 66 1019.4
20260905151521 63 242 3.5 13.0 0.00 0.24 0.03 65 1019.4
20260905151024 63 178 2.6 9.6 0.00 0.24 0.03 67 1019.4
20260905150522 62 276 1.7 11.3 0.00 0.24 0.03 67 1019.5
20260905150026 63 246 4.3 11.3 0.00 0.24 0.03 64 1019.4
20260905145521 63 215 1.7 10.4 0.00 0.24 0.03 66 1019.4
20260905145021 62 257 3.5 13.0 0.00 0.24 0.03 66 1019.4
20260905144539 62 242 4.3 13.0 0.00 0.24 0.03 66 1019.3
20260905144020 62 248 3.5 9.6 0.00 0.24 0.03 67 1019.4
20260905143519 62 242 2.6 8.7 0.00 0.24 0.03 66 1019.4
20260905143023 63 234 1.7 8.7 0.00 0.24 0.03 65 1019.5
20260905142518 63 119 3.5 10.4 0.00 0.24 0.03 65 1019.4
20260905142022 63 305 4.3 12.2 0.00 0.24 0.03 64 1019.4
20260905141530 64 174 4.3 13.9 0.00 0.24 0.03 65 1019.3
20260905141018 64 271 4.3 13.9 0.00 0.24 0.03 64 1019.4
20260905140518 65 279 5.2 12.2 0.00 0.24 0.03 64 1019.4
20260905140018 65 266 2.6 12.2 0.00 0.24 0.03 65 1019.4
20260905135518 64 218 2.6 11.3 0.00 0.24 0.03 65 1019.5
20260905135017 64 197 2.6 13.9 0.00 0.24 0.03 69 1019.3
20260905134518 62 293 4.3 13.9 0.00 0.24 0.03 67 1019.3
20260905134017 63 274 1.7 10.4 0.00 0.24 0.03 66 1019.3
20260905133517 63 306 2.6 9.6 0.00 0.24 0.03 66 1019.2
20260905133019 64 260 3.5 10.4 0.00 0.24 0.03 65 1019.2
20260905132520 63 218 3.5 12.2 0.00 0.24 0.03 65 1019.2
20260905132017 64 294 5.2 12.2 0.00 0.24 0.03 64 1019.2
20260905131516 64 268 5.2 12.2 0.00 0.24 0.03 63 1019.1
20260905131016 65 179 3.5 9.6 0.00 0.24 0.03 65 1019.2
20260905130515 65 261 4.3 13.9 0.00 0.24 0.03 66 1019.1
20260905130015 64 118 3.5 13.9 0.00 0.24 0.03 69 1019.1
20260905125515 64 227 4.3 11.3 0.00 0.24 0.03 64 1019.1
20260905125015 65 335 4.3 11.3 0.00 0.24 0.03 65 1019.2
20260905124515 64 227 4.3 13.9 0.00 0.24 0.03 67 1019.1
20260905124013 64 319 5.2 13.9 0.00 0.24 0.03 66 1019.3
20260905123612 64 232 3.5 9.6 0.00 0.24 0.03 67 1019.2
20260905123012 64 313 4.3 10.4 0.00 0.24 0.03 65 1019.1
20260905122512 64 229 2.6 15.6 0.00 0.24 0.03 66 1019.1
20260905122011 63 279 6.1 13.9 0.00 0.24 0.03 67 1019.2
20260905121512 63 287 4.3 12.2 0.00 0.24 0.03 69 1019.3
20260905121012 63 323 5.2 12.2 0.00 0.24 0.03 67 1019.4
20260905120514 62 273 4.3 12.2 0.00 0.24 0.03 69 1019.3
20260905120011 62 242 4.3 11.3 0.00 0.24 0.03 67 1019.3
20260905115512 64 215 3.5 11.3 0.00 0.24 0.03 65 1019.4
20260905115014 64 315 6.1 11.3 0.00 0.24 0.03 65 1019.2
20260905114509 64 234 3.5 12.2 0.00 0.24 0.03 71 1019.2
20260905114008 63 227 4.3 12.2 0.00 0.24 0.03 68 1019.3
20260905113507 63 192 6.1 13.0 0.00 0.24 0.03 67 1019.4
20260905113008 63 215 4.3 11.3 0.00 0.24 0.03 70 1019.3
20260905112507 61 200 2.6 11.3 0.00 0.24 0.03 72 1019.4
20260905112010 62 190 4.3 8.7 0.00 0.24 0.03 69 1019.4
20260905111507 62 237 2.6 9.6 0.00 0.24 0.03 71 1019.4
20260905111007 61 248 2.6 8.7 0.00 0.24 0.03 76 1019.4
20260905110505 60 215 2.6 12.2 0.00 0.24 0.03 76 1019.4
20260905110013 61 246 3.5 13.0 0.00 0.24 0.03 72 1019.4
20260905105506 62 288 4.3 13.0 0.00 0.24 0.03 70 1019.3
20260905105008 63 300 2.6 12.2 0.00 0.24 0.03 71 1019.1
20260905104505 63 178 3.5 12.2 0.00 0.24 0.03 73 1019.1
20260905104003 63 213 4.3 10.4 0.00 0.24 0.03 72 1019.2
20260905103502 62 250 4.3 12.2 0.00 0.24 0.03 72 1019.2
20260905103101 61 260 4.3 12.2 0.00 0.24 0.03 72 1019.2
20260905102603 60 286 2.6 7.8 0.00 0.24 0.03 74 1019.1
20260905102100 61 228 1.7 9.6 0.00 0.24 0.03 72 1019.2
20260905101600 61 271 3.5 9.6 0.00 0.24 0.03 73 1019.3
20260905101058 61 216 1.7 10.4 0.00 0.24 0.03 75 1019.3
20260905100559 60 293 3.5 10.4 0.00 0.24 0.03 77 1019.4
20260905100114 59 302 2.6 6.1 0.00 0.24 0.03 75 1019.2
20260905095557 60 279 1.7 9.6 0.00 0.24 0.03 75 1019.3
20260905095059 60 261 2.6 8.7 0.00 0.24 0.03 75 1019.2
20260905094610 60 220 3.5 12.2 0.00 0.24 0.03 76 1019.0
20260905094056 59 198 3.5 12.2 0.00 0.24 0.03 77 1019.1
20260905093556 59 200 1.7 7.8 0.00 0.24 0.03 75 1019.2
20260905093058 60 232 2.6 7.0 0.00 0.24 0.03 76 1019.1
20260905092555 60 269 2.6 8.7 0.00 0.24 0.03 77 1018.8
20260905092053 60 184 3.5 11.3 0.00 0.24 0.03 77 1018.7
20260905091605 60 192 2.6 11.3 0.00 0.24 0.03 80 1018.9
20260905091052 59 184 3.5 11.3 0.00 0.24 0.03 80 1019.0
20260905090550 59 213 2.6 10.4 0.00 0.24 0.03 79 1018.8
20260905090050 59 271 2.6 10.4 0.00 0.24 0.03 80 1018.8
20260905085550 59 226 2.6 11.3 0.00 0.24 0.03 80 1018.7
20260905085049 59 173 3.5 11.3 0.00 0.24 0.03 79 1018.6
20260905084548 59 250 3.5 8.7 0.00 0.24 0.03 81 1018.6
20260905084046 58 219 1.7 12.2 0.00 0.24 0.03 84 1018.6
20260905083554 58 201 2.6 12.2 0.00 0.24 0.03 85 1018.5
20260905083045 58 295 1.7 7.8 0.00 0.24 0.03 85 1018.5
20260905082544 58 186 3.5 8.7 0.00 0.24 0.03 85 1018.6
20260905082044 58 259 0.9 8.7 0.00 0.24 0.03 86 1018.6
20260905081544 58 196 2.6 8.7 0.00 0.24 0.03 86 1018.5
20260905081043 58 302 3.5 7.8 0.00 0.24 0.03 87 1018.4
20260905080540 57 205 1.7 6.1 0.00 0.24 0.03 88 1018.6
20260905080042 57 196 2.6 9.6 0.00 0.24 0.03 86 1018.4
20260905075539 57 239 2.6 9.6 0.00 0.24 0.03 87 1018.4
20260905075038 57 190 2.6 8.7 0.00 0.24 0.03 88 1018.3
20260905074551 57 246 2.6 8.7 0.00 0.24 0.03 88 1018.3
20260905074035 56 252 1.7 6.1 0.00 0.24 0.03 89 1018.3
20260905073536 56 240 1.7 12.2 0.00 0.24 0.03 90 1018.3
20260905073055 56 191 1.7 12.2 0.00 0.24 0.03 91 1018.2
20260905072537 56 155 3.5 8.7 0.00 0.24 0.03 91 1018.3
20260905072035 56 243 2.6 6.1 0.00 0.24 0.03 92 1018.3
20260905071533 55 228 1.7 8.7 0.00 0.24 0.03 94 1018.1
20260905071034 55 257 2.6 8.7 0.00 0.24 0.03 94 1018.2
20260905070532 55 254 3.5 6.1 0.00 0.24 0.03 94 1018.1
20260905070032 55 237 2.6 6.1 0.00 0.24 0.03 95 1018.0
20260905065530 55 268 0.9 5.2 0.00 0.24 0.03 96 1018.1
20260905065034 55 258 0.9 4.3 0.00 0.24 0.03 96 1018.1
20260905064530 55 240 0.9 7.8 0.00 0.24 0.03 97 1017.9
20260905064029 54 207 1.7 7.8 0.00 0.24 0.03 96 1018.0
20260905063531 55 213 1.7 6.1 0.00 0.24 0.03 97 1018.0
20260905063028 54 251 0.0 4.3 0.00 0.24 0.03 97 1017.9
20260905062526 54 259 0.9 5.2 0.00 0.24 0.03 97 1018.0
20260905062030 54 233 0.9 5.2 0.00 0.24 0.03 97 1017.9
20260905061526 54 240 0.9 4.3 0.00 0.24 0.03 97 1017.8
20260905061026 54 245 0.9 4.3 0.00 0.24 0.03 97 1017.7
20260905060524 54 242 0.9 4.3 0.00 0.24 0.03 97 1017.6
20260905060024 54 295 0.9 5.2 0.00 0.24 0.03 97 1017.4
20260905055522 54 215 1.7 5.2 0.00 0.24 0.03 97 1017.6
20260905055022 54 235 2.6 9.6 0.00 0.24 0.03 97 1017.5
20260905054522 54 250 4.3 9.6 0.00 0.24 0.03 97 1017.5
20260905054021 54 234 1.7 7.0 0.00 0.24 0.03 97 1017.4
20260905053520 54 259 1.7 6.1 0.00 0.24 0.03 97 1017.2
20260905053020 54 301 0.9 6.1 0.00 0.24 0.03 98 1017.3
20260905052517 54 232 1.7 7.8 0.00 0.24 0.03 98 1017.1
20260905052017 54 254 2.6 7.0 0.00 0.24 0.03 98 1017.0
20260905051517 54 233 0.9 6.1 0.00 0.24 0.03 98 1016.9
20260905051015 54 232 0.9 5.2 0.00 0.24 0.03 98 1016.8
20260905050518 54 209 0.9 7.0 0.00 0.24 0.03 98 1016.8
20260905050017 54 235 0.9 7.0 0.00 0.24 0.03 98 1016.7
20260905045514 54 188 0.0 6.1 0.00 0.24 0.03 98 1016.7
20260905045013 54 169 1.7 6.1 0.00 0.24 0.03 98 1016.6
20260905044512 54 261 0.0 6.1 0.00 0.24 0.03 98 1016.5
20260905044011 54 217 1.7 4.3 0.00 0.24 0.03 98 1016.6
20260905043513 54 250 1.7 4.3 0.00 0.24 0.03 98 1016.5
20260905043014 54 219 0.0 3.5 0.00 0.24 0.03 98 1016.5
20260905042513 54 227 1.7 5.2 0.00 0.24 0.03 98 1016.3
20260905042010 54 246 1.7 5.2 0.00 0.24 0.03 98 1016.5
20260905041509 54 192 0.0 3.5 0.00 0.24 0.03 98 1016.4
20260905041008 54 211 0.9 3.5 0.00 0.24 0.03 98 1016.4
20260905040508 54 205 0.0 6.1 0.00 0.24 0.03 98 1016.4
20260905040011 54 179 1.7 7.0 0.00 0.24 0.03 98 1016.2
20260905035506 54 241 0.9 6.1 0.00 0.24 0.03 97 1016.2
20260905035006 54 207 1.7 7.0 0.00 0.24 0.03 98 1016.3
20260905034506 54 221 1.7 7.0 0.00 0.24 0.03 98 1016.1
20260905034004 54 328 2.6 6.1 0.00 0.24 0.03 98 1015.8
20260905033503 54 281 0.9 6.1 0.00 0.24 0.03 98 1015.9
20260905033010 54 206 2.6 6.1 0.00 0.24 0.03 98 1015.9
20260905032502 54 264 0.0 6.1 0.00 0.24 0.03 98 1015.9
20260905032003 54 254 1.7 5.2 0.00 0.24 0.03 98 1015.5
20260905031504 54 246 0.9 5.2 0.00 0.24 0.03 98 1015.6
20260905031001 55 243 0.9 5.2 0.00 0.24 0.03 98 1015.6
20260905030502 55 292 1.7 8.7 0.00 0.24 0.03 98 1015.5
20260905030004 55 161 1.7 8.7 0.00 0.24 0.03 98 1015.6
20260905025600 55 252 0.9 2.6 0.00 0.24 0.03 98 1015.6
20260905025100 55 223 0.0 2.6 0.00 0.24 0.03 98 1015.3
20260905024600 55 201 0.0 3.5 0.00 0.24 0.03 98 1015.4
20260905024059 55 255 0.9 7.8 0.00 0.24 0.03 98 1015.5
20260905023559 55 230 0.9 7.8 0.00 0.24 0.03 98 1015.6
20260905023127 55 265 0.9 3.5 0.00 0.24 0.03 98 1015.7
20260905022557 55 178 0.0 3.5 0.00 0.24 0.03 98 1015.5
20260905022056 55 200 0.9 7.0 0.00 0.24 0.03 99 1015.2
20260905021600 55 244 0.9 9.6 0.00 0.24 0.03 99 1015.2
20260905021057 55 251 0.9 9.6 0.00 0.24 0.03 99 1015.0
20260905020559 55 203 1.7 9.6 0.00 0.24 0.03 99 1015.1
20260905020055 55 267 3.5 9.6 0.00 0.24 0.03 99 1014.6
20260905015554 55 234 1.7 6.1 0.00 0.24 0.03 99 1014.4
20260905015054 55 151 0.0 4.3 0.01 0.24 0.03 98 1014.0
20260905014556 55 217 0.9 6.1 0.01 0.24 0.03 98 1015.0
20260905014054 55 213 0.9 6.1 0.01 0.24 0.03 98 1014.9
20260905013556 55 238 0.0 3.5 0.01 0.24 0.03 98 1014.7
20260905013052 55 232 0.0 2.6 0.01 0.24 0.03 98 1014.3
20260905012552 55 279 0.0 3.5 0.01 0.24 0.03 98 1014.4
20260905012052 55 198 0.0 3.5 0.01 0.24 0.03 98 1013.7
20260905011557 55 135 0.0 6.1 0.01 0.24 0.03 98 1014.1
20260905011055 55 266 1.7 7.0 0.01 0.24 0.03 98 1014.7
20260905010553 55 269 1.7 7.0 0.01 0.24 0.03 98 1014.6
20260905010050 55 219 2.6 7.0 0.01 0.24 0.03 98 1014.9
20260905005552 55 267 1.7 5.2 0.01 0.24 0.03 98 1014.4
20260905005049 55 225 1.7 5.2 0.00 0.24 0.02 98 1014.4
20260905004549 55 273 0.0 3.5 0.00 0.24 0.02 98 1014.3
20260905004047 56 231 0.0 4.3 0.00 0.24 0.02 98 1014.2
20260905003547 56 261 0.9 6.1 0.00 0.24 0.02 99 1014.4
20260905003047 56 163 0.9 6.1 0.00 0.24 0.02 99 1014.8
20260905002548 56 283 1.7 6.1 0.00 0.24 0.02 99 1014.9
20260905002049 56 189 1.7 6.1 0.00 0.24 0.02 99 1014.9
20260905001545 56 216 0.9 7.8 0.00 0.24 0.02 99 1014.9
20260905001046 56 269 2.6 7.8 0.00 0.24 0.02 99 1014.7
20260905000545 56 159 2.6 9.6 0.00 0.24 0.02 99 1014.6
20260905000053 56 267 3.5 10.4 0.00 0.24 0.02 98 1014.2
20260904235541 56 229 1.7 10.4 0.00 0.24 0.02 99 1014.1
20260904235041 56 169 1.7 7.8 0.00 0.24 0.02 99 1014.2
20260904234540 56 246 1.7 7.8 0.00 0.24 0.02 98 1014.2
20260904234041 56 176 1.7 7.8 0.00 0.24 0.02 98 1014.3
20260904233539 56 134 0.9 5.2 0.00 0.24 0.02 98 1014.2